www.pogodaiklimat.ru

ПОГОДА в Нурвике, AK

  • Прогноз погоды в Нурвике
  • Монитор погоды в Нурвике
  • Климат в Нурвике

АРХИВ ПОГОДЫ в Нурвике

Время (UTC), дата Ветер
(напр.,м/с)
 
Видим.   Явления Облачность Т
(С)
Тd
(С)
f
(%)
Тe
(С)
Тes
(С)
Комфортность

P
(гПа)

Po
(гПа)
Тmin
(С)
Tmax
(С)
R
(мм)
SD
(см)
22:03 24.05 З  16 км    10/10 450 м  +4.0  0.0  75  0  0      1021.5         
22:41 24.05 СЗ  16 км    5/5 450 м  +5.0  +1.0  75  +1  +5      1021.2         
22:56 24.05 нст  16 км    2/2 450 м  +5.6  +0.6  70  +4  +13  опасность
простуды 
1023.4  1021.2  +0.6  +5.6     
23:56 24.05 З  16 км    ясно  +6.7  +1.1  67  +3  +10    1023.3  1021.2         
00:56 25.05 ЮЗ  16 км    ясно  +7.2  +1.1  65  +4  +11    1023.0  1020.8         
01:56 25.05 ЮЗ  16 км    ясно  +7.2  +0.6  63  +4  +10    1022.8  1020.5         
02:56 25.05   16 км    ясно  +8.9  +0.6  56  +9  +16    1022.2  1019.8         
03:56 25.05 ЮЗ  16 км    ясно  +8.9  +0.6  56  +8  +12    1021.9  1019.8         
04:56 25.05   16 км    ясно  +8.9  0.0  54  +9  +11    1021.6  1019.5  +5.6  +9.4     
05:56 25.05   16 км    ясно  +8.9  +0.6  56  +9  +10    1021.4  1019.2         
06:56 25.05 ЮЗ  16 км    ясно  +6.1  +1.7  73  +2  +3    1021.5  1019.2         
07:56 25.05 СЗ  16 км    ясно  +5.6  +1.7  76  +2  +2    1021.3  1019.2         
08:56 25.05 СЗ  16 км    ясно  +3.9  +0.6  79  0  0    1021.1  1018.8         
09:56 25.05 ЮЗ  16 км    ясно  +2.8  +1.1  89  0  0    1020.8  1018.5         
10:56 25.05   16 км    ясно  +2.2  +1.1  92  +1  +1    1020.4  1018.1  +1.7  +9.4     
11:56 25.05   16 км    ясно  +1.7  +0.6  92  +1  +1    1020.0  1017.8         
12:44 25.05 СВ  3 км  дымка  ясно  +1.0  +1.0  100  -2  -2      1017.5         
12:47 25.05 В  1 км  дымка  ясно  +1.0  +1.0  100  -2  -2      1017.5         
12:54 25.05 СВ  800 м  туман  ясно  +1.0  0.0  93  -2  -2      1017.5         
12:56 25.05 СВ  800 м  туман  ясно  +1.1  +0.6  96  -2  -2    1019.8  1017.5         
13:10 25.05 В  2 км  дымка  ясно  +1.0  -1.0  86  -3  -3      1017.5         
13:17 25.05 СВ  3 км  дымка  ясно  +1.0  -1.0  86  -4  -3      1017.5         
13:24 25.05 СВ  13 км    ясно  +1.0  -1.0  86  -4  -3      1017.5         
13:30 25.05 СВ  2 км  дымка  ясно  +1.0  0.0  93  -4  -3      1017.1         
13:32 25.05 СВ  1 км  дымка  ясно  +1.0  0.0  93  -4  -3      1017.1         
13:39 25.05 СВ  400 м  туман  ясно  +1.0  0.0  93  -4  -3      1017.1         
13:54 25.05 СВ  1 км  дымка  ?/?  +1.0  0.0  93  -3  -3      1017.1         
13:56 25.05 В  2 км  дымка  2/2 30 м  +1.1  +0.6  96  -3  -3    1019.3  1017.1         
13:58 25.05 В  5 км  дымка  2/2 30 м  +1.0  +1.0  100  -3  -3      1017.1         
14:56 25.05 СВ  16 км    ясно  +4.4  +2.8  89  +2  +3    1018.8  1016.5         
15:56 25.05 В  16 км    ясно  +6.7  +2.2  73  +5  +7    1018.4  1016.1         
16:56 25.05   16 км    ясно  +8.9  -1.1  49  +9  +13    1017.9  1015.8  +0.6  +9.4     
17:56 25.05   16 км    ясно  +10.6  +0.6  50  +10  +17    1017.3  1015.1         
18:56 25.05   16 км    ясно  +12.2  +0.6  45  +12  +21    1016.5  1014.4         
19:56 25.05 нст  16 км    ясно  +13.3  +1.7  45  +13  +20    1015.3  1013.4         
20:56 25.05 СВ  16 км    ясно  +14.4  +2.2  44  +14  +22    1014.2  1012.1         
21:56 25.05 СВ  16 км    ясно  +16.1  +2.8  41  +15  +22    1013.3  1011.0         
22:56 25.05 ЮВ  16 км    ясно  +17.2  +2.8  38  +17  +24    1012.5  1010.4  +8.9  +17.2     
23:56 25.05 Ю  16 км    ясно  +16.7  +3.9  42  +16  +22    1011.9  1009.7         
00:56 26.05 Ю  16 км    ясно  +17.2  +3.9  41  +17  +24    1011.1  1009.0         
01:56 26.05 СВ  16 км    ясно  +17.8  +2.2  35  +18  +22    1010.3  1008.3         
02:56 26.05 СВ  14 км    ясно  +17.8  +1.1  32  +17  +21    1009.5  1007.3         
03:56 26.05 В  16 км    ясно  +17.8  +1.1  32  +17  +19    1008.7  1006.7         
04:56 26.05 В  13 км    ясно  +17.2  +2.2  36  +17  +18    1008.5  1006.3  +16.7  +18.3     
05:56 26.05 СВ  16 км    ясно  +15.6  +2.2  40  +15  +15    1007.7  1005.6         
06:56 26.05 СВ  16 км    ясно  +13.3  +1.1  43  +12  +12    1007.3  1005.3         
07:56 26.05 СВ  16 км    ясно  +12.2  0.0  43  +10  +10    1007.0  1005.0         
08:56 26.05 СВ  16 км    ясно  +11.1  -0.6  44  +8  +8    1006.5  1004.3         

 

Местоположение метеостанции Robert (Bob) Curtis Memorial Airport: широта 66.8175 долгота -161.0223 высота над уровнем моря 17 м.

В архиве по умолчанию представлена погода в Нурвике за последние 1-2 суток. Обновление информации о фактической погоде в базе происходит ежечасно! Архивные данные за месяц целиком и за предыдущие месяцы Вы можете получить, выбрав интересующий диапазон дат из раскрывающегося списка и нажав кнопку "Ввод!".

Внимание! Архив погоды МЕТАР в базе сайта хранится не более 60 дней. Нет смысла пытаться выбрать более раннюю дату.

Внимание! Время в таблицах - всемирное. Для получения местного времени необходимо прибавить поправку, которая в Нурвике равна -9 ч.

Ветер - указаны скорость ветра в м/с и направление, откуда дует ветер: С - северный, СВ - северо-восточный, В - восточный, ЮВ - юго-восточный, Ю - южный, ЮЗ - юго-западный, З - западный, СЗ - северо-западный.
Видимость - горизонтальная дальность видимости в метрах или километрах. При видимости от 1 до 10 км при отсутствии осадков обычно наблюдается дымка, при ухудшении видимости до 1 км и менее - туман. В сухую погоду видимость может ухудшаться дымом, пылью или мглою.
Атмосферные явления - указаны явления, наблюдавшиеся в указанный момент времени.
Облачность - указаны через наклонную черту верхняя и нижняя облачность в баллах и высота нижней границы облаков в метрах. Внимание: облачность, как и прочие метеорологические величины в США измеряются автоматическими метеостанциями. Указанные значения в баллах носят условный характер и показывают процент времени, в течение которого, в среднем, лазерный луч высотомера отражался от облаков обратно.
T - Температура воздуха - температура, измеренная на высоте 2 м над землей.
Td - Температура точки росы - температура, при понижении до которой содержащийся в воздухе водяной пар достигнет насыщения.
f - Относительная влажность воздуха - влажноcть воздуха, измеренная на высоте 2 м над землей.
Te - Эффективная температура - температура, которую ощущает одетый по сезону человек в тени. Характеристика душности погоды. При расчете учитывается влияние влажности воздуха и скорости ветра на теплоощущения человека.
Tes - Эффективная температура на солнце - температура, которую ощущает человек, с поправкой на солнечный нагрев. Характеристика знойности погоды. Зависит от высоты солнца над горизонтом, облачности и скорости ветра. Ночью, в пасмурную погоду, а также при ветре 12 м/с и более поправка равна нулю.
P - Атмосферное давление - приведенное к уровню моря атмосферное давление.
Po - Атмосферное давление - измеренное на уровне метеостанции атмосферное давление.
Tmin - Минимальная температура - минимум температуры воздуха на высоте 2 м над землей.
Tmax - Максимальная температура - максимум температуры воздуха на высоте 2 м над землей.
R - Количество осадков - Количество выпавших осадков за 3 или 6 часов, мм.
SD - Снежный покров - Высота снежного покрова, см.